Location: *
(45.9500°N, 9.0833°E)
Time: 22:40:04
(UTC+00:00)

Tiros 1 despin weight - Pass Details

Date: 22 June 2021
Orbit: 593 x 642 km, 48.2° (Epoch: 02 August)

Event Time Altitude Azimuth Distance (km) Brightness Sun altitude
Rises 07:54:23 0° 283° (WNW) 2,827 ? 42.2°
Reaches altitude 10° 07:56:40 10° 286° (WNW) 1,925 ? 42.6°
Maximum altitude 08:01:04 74° 11° (NNE) 621 ? 43.3°
Drops below altitude 10° 08:05:30 10° 97° (E) 1,932 ? 44.1°
Sets 08:07:48 0° 99° (E) 2,839 ? 44.4°
